Philip, SD

3:02 PM MDT on September 19, 2017 (GMT -0600)
Philip

Weather History for KPHP - January, 2013

Change the Weather History Date:

Sunday, January 20, 2013

  Actual Average Record
Temperature  
Mean Temperature 17 °F 22 °F  
Max Temperature 25 °F 35 °F 64 °F (1964)
Min Temperature 8 °F 10 °F -26 °F (1962)
Degree Days  
Heating Degree Days 48 43  
Month to date heating degree days 776 867  
Since 1 July heating degree days 3540 3802  
Cooling Degree Days 0 0  
Month to date cooling degree days 0 0  
Year to date cooling degree days 0 0  
Moisture  
Dew Point 9 °F    
Average Humidity 75    
Maximum Humidity 88    
Minimum Humidity 62    
Precipitation  
Precipitation T in 0.01 in 0.90 in (2006)
Month to date precipitation 0.32 0.20  
Year to date precipitation 0.32 0.20  
Sea Level Pressure  
Sea Level Pressure 30.42 in    
Wind  
Wind Speed 12 mph (North)    
Max Wind Speed 24 mph    
Max Gust Speed 30 mph    
Visibility 10 miles    
Events Snow    
T = Trace of Precipitation, MM = Missing Value Source: NWS Daily Summary

Daily Weather History Graph

Daily Weather History Graph

Search for Another Location

Airport or City:

Trip Planner

Search our weather history database for the weather conditions in past years. The results will help you decide how hot, cold, wet, or windy it might be!

Date:

Astronomy

Jan. 20, 2013 Rise Set
Actual Time 7:14 AM MST 4:40 PM MST
Civil Twilight 6:43 AM MST 5:12 PM MST
Nautical Twilight 6:07 AM MST 5:47 PM MST
Astronomical Twilight 5:33 AM MST 6:22 PM MST
Moon 11:43 AM MST (1/20) 1:47 AM MST (1/20)
Length of Visible Light 10h 29m
Length of Day
9h 26m
Waxing Gibbous, 67% of the Moon is Illuminated
Jan 20
Waxing Gibbous
Jan 26
Full
Feb 3
Last Quarter
Feb 10
New
Feb 17
First Quarter

Hourly Weather History & Observations

Time (MST) Temp. Windchill Dew Point Humidity Pressure Visibility Wind Dir Wind Speed Gust Speed Precip Events Conditions
12:55 AM 15.1 °F 3.3 °F 10.0 °F 80% 30.28 in 10.0 mi ESE 9.2 mph - N/A   Clear
1:55 AM 16.0 °F 2.9 °F 10.9 °F 81% 30.27 in 10.0 mi East 11.5 mph - N/A   Clear
2:55 AM 16.0 °F 0.6 °F 10.9 °F 81% 30.25 in 10.0 mi East 16.1 mph - N/A   Clear
3:55 AM 14.0 °F -3.4 °F 10.0 °F 84% 30.26 in 10.0 mi East 19.6 mph - N/A   Partly Cloudy
4:32 AM 12.2 °F -4.8 °F 8.6 °F 85% 30.19 in 10.0 mi ENE 17.3 mph - N/A   Mostly Cloudy
4:55 AM 14.0 °F -2.5 °F 9.0 °F 80% 30.31 in 10.0 mi ENE 17.3 mph - N/A   Overcast
5:55 AM 12.9 °F -1.6 °F 6.1 °F 74% 30.37 in 10.0 mi East 12.7 mph - N/A   Overcast
6:23 AM 12.2 °F -1.0 °F 6.8 °F 79% 30.30 in 10.0 mi ENE 10.4 mph - N/A   Overcast
6:55 AM 12.9 °F -0.9 °F 6.1 °F 74% 30.42 in 10.0 mi NE 11.5 mph - N/A   Overcast
7:55 AM 14.0 °F - 6.1 °F 71% 30.46 in 10.0 mi Calm Calm - N/A   Overcast
8:55 AM 15.1 °F 2.5 °F 8.1 °F 74% 30.51 in 10.0 mi NNW 10.4 mph - 0.00 in   Overcast
9:55 AM 18.0 °F 5.4 °F 10.0 °F 71% 30.55 in 10.0 mi NNW 11.5 mph - N/A   Overcast
10:55 AM 21.9 °F 10.4 °F 12.0 °F 66% 30.52 in 10.0 mi North 11.5 mph - N/A   Overcast
11:55 AM 21.9 °F 11.0 °F 12.0 °F 66% 30.49 in 10.0 mi NNW 10.4 mph - N/A   Mostly Cloudy
12:55 PM 23.0 °F 11.7 °F 12.9 °F 65% 30.46 in 10.0 mi NW 11.5 mph - N/A   Overcast
1:31 PM 24.8 °F 13.4 °F 15.8 °F 69% 30.36 in 10.0 mi NNW 12.7 mph - N/A   Overcast
1:55 PM 24.1 °F 10.6 °F 15.1 °F 69% 30.46 in 6.0 mi NNW 17.3 mph - 0.00 in Snow Light Snow
2:03 PM 23.0 °F 9.6 °F 15.8 °F 74% 30.36 in 2.5 mi NNW 16.1 mph - 0.00 in Snow Light Snow
2:28 PM 21.2 °F 8.3 °F 15.8 °F 80% 30.36 in 8.0 mi NW 13.8 mph - 0.00 in Snow Light Snow
2:43 PM 24.8 °F 11.9 °F 12.2 °F 59% 30.36 in 10.0 mi NNW 16.1 mph - 0.00 in   Overcast
2:55 PM 24.1 °F 11.0 °F 12.0 °F 60% 30.45 in 10.0 mi NW 16.1 mph - 0.00 in   Overcast
3:55 PM 21.0 °F 6.2 °F 10.0 °F 63% 30.46 in 10.0 mi NNW 18.4 mph 26.5 mph N/A   Scattered Clouds
4:55 PM 17.1 °F 7.6 °F 8.1 °F 68% 30.48 in 10.0 mi NNW 6.9 mph - N/A   Partly Cloudy
5:55 PM 16.0 °F 1.7 °F 7.0 °F 68% 30.50 in 10.0 mi NNE 13.8 mph - N/A   Overcast
6:55 PM 12.0 °F -0.4 °F 5.0 °F 73% 30.52 in 10.0 mi NNE 9.2 mph - N/A   Overcast
7:55 PM 10.9 °F -2.6 °F 3.9 °F 73% 30.52 in 10.0 mi North 10.4 mph - N/A   Overcast
8:55 PM 10.0 °F -2.9 °F 3.0 °F 73% 30.52 in 10.0 mi NNE 9.2 mph - N/A   Overcast
9:55 PM 10.0 °F -0.9 °F 1.9 °F 70% 30.53 in 10.0 mi North 6.9 mph - N/A   Overcast
10:55 PM 10.0 °F -2.9 °F 1.0 °F 67% 30.52 in 10.0 mi NNW 9.2 mph - N/A   Overcast
11:55 PM 8.1 °F -6.2 °F -0.0 °F 70% 30.51 in 10.0 mi NNE 10.4 mph - N/A   Overcast